• In Latvia
  • List of Countries
  • For 7 days
  • Water Temperature
  • Satellite Maps
  • Weather Map
  • Weather Widgets
  • user-avatar
    Login

    Hourly Weather Kozani

    Today, 21 October, Saturday

    Time Temperature Precipitation Wind Pressure Humidity
    00:00 +15°C° 0 mm 1 mps 706 mmHg 66%
    01:00 +15°C° 0 mm 1 mps 706 mmHg 68%
    02:00 +14°C° 0 mm 1 mps 706 mmHg 69%
    03:00 +14°C° 0 mm 1 mps 706 mmHg 71%
    04:00 +14°C° 0 mm 1 mps 706 mmHg 72%
    05:00 +14°C° 0 mm 1 mps 706 mmHg 71%
    06:00 +15°C° 0 mm 1 mps 706 mmHg 70%
    07:00 +15°C° 0 mm 1 mps 706 mmHg 69%
    08:00 +18°C° 0 mm 1 mps 706 mmHg 61%
    09:00 +21°C° 0 mm 1 mps 707 mmHg 53%
    10:00 +23°C° 0 mm 1 mps 707 mmHg 45%
    11:00 +23°C° 0 mm 1 mps 707 mmHg 42%
    12:00 +24°C° 0 mm 1 mps 706 mmHg 40%
    13:00 +25°C° 0 mm 1 mps 706 mmHg 37%
    14:00 +24°C° 0 mm 1 mps 706 mmHg 39%
    15:00 +24°C° 0 mm 1 mps 706 mmHg 41%
    16:00 +23°C° 0 mm 1 mps 705 mmHg 43%
    17:00 +21°C° 0 mm 1 mps 705 mmHg 46%
    18:00 +20°C° 0 mm 1 mps 705 mmHg 49%
    19:00 +19°C° 0 mm 1 mps 705 mmHg 52%
    20:00 +18°C° 0 mm 1 mps 705 mmHg 55%
    21:00 +16°C° 0 mm 1 mps 705 mmHg 57%
    22:00 +16°C° 0 mm 1 mps 705 mmHg 59%
    23:00 +15°C° 0 mm 1 mps 705 mmHg 61%

    Tomorrow, 22 October, Sunday

    Time Temperature Precipitation Wind Pressure Humidity
    00:00 +15°C° 0 mm 1 mps 705 mmHg 62%
    01:00 +15°C° 0 mm 1 mps 704 mmHg 64%
    02:00 +14°C° 0 mm 1 mps 704 mmHg 66%
    03:00 +14°C° 0 mm 1 mps 704 mmHg 67%
    04:00 +13°C° 0 mm 2 mps 704 mmHg 69%
    05:00 +14°C° 0 mm 2 mps 704 mmHg 67%
    06:00 +14°C° 0 mm 1 mps 704 mmHg 66%
    07:00 +14°C° 0 mm 1 mps 704 mmHg 64%
    08:00 +18°C° 0 mm 1 mps 704 mmHg 55%
    09:00 +20°C° 0 mm 1 mps 705 mmHg 45%
    10:00 +22°C° 0 mm 1 mps 705 mmHg 35%
    11:00 +23°C° 0 mm 1 mps 704 mmHg 33%
    12:00 +24°C° 0 mm 1 mps 704 mmHg 31%
    13:00 +25°C° 0 mm 1 mps 704 mmHg 28%
    14:00 +24°C° 0 mm 1 mps 703 mmHg 32%
    15:00 +23°C° 0 mm 1 mps 703 mmHg 35%
    16:00 +23°C° 0 mm 1 mps 703 mmHg 39%
    17:00 +21°C° 0 mm 1 mps 702 mmHg 44%
    18:00 +20°C° 0 mm 1 mps 702 mmHg 48%
    19:00 +18°C° 0 mm 1 mps 702 mmHg 53%
    20:00 +18°C° 0 mm 1 mps 702 mmHg 55%
    21:00 +16°C° 0 mm 1 mps 702 mmHg 58%
    22:00 +16°C° 0 mm 1 mps 702 mmHg 60%
    23:00 +15°C° 0 mm 1 mps 701 mmHg 61%

    Day after tomorrow, 23 October, Monday

    Time Temperature Precipitation Wind Pressure Humidity
    00:00 +15°C° 0 mm 1 mps 701 mmHg 63%
    01:00 +15°C° 0 mm 1 mps 701 mmHg 64%
    02:00 +15°C° 0 mm 1 mps 700 mmHg 65%
    03:00 +14°C° 0 mm 1 mps 700 mmHg 66%
    04:00 +14°C° 0 mm 1 mps 699 mmHg 66%
    05:00 +14°C° 0 mm 1 mps 699 mmHg 66%
    06:00 +15°C° 0 mm 1 mps 699 mmHg 66%
    07:00 +15°C° 0 mm 1 mps 698 mmHg 66%
    08:00 +16°C° 0.2 mm 1 mps 698 mmHg 62%
    09:00 +17°C° 0.2 mm 2 mps 698 mmHg 58%
    10:00 +19°C° 0.2 mm 2 mps 698 mmHg 54%
    11:00 +19°C° 0.5 mm 2 mps 698 mmHg 53%
    12:00 +19°C° 0.5 mm 3 mps 697 mmHg 52%
    13:00 +20°C° 0.5 mm 3 mps 696 mmHg 51%
    14:00 +19°C° 0.6 mm 2 mps 696 mmHg 52%
    15:00 +19°C° 0.6 mm 2 mps 696 mmHg 54%
    16:00 +18°C° 0.6 mm 2 mps 695 mmHg 55%
    17:00 +17°C° 1 mm 2 mps 695 mmHg 62%
    18:00 +15°C° 1 mm 2 mps 694 mmHg 68%
    19:00 +14°C° 1 mm 2 mps 694 mmHg 74%
    20:00 +14°C° 0.5 mm 2 mps 694 mmHg 75%
    21:00 +13°C° 0.5 mm 2 mps 694 mmHg 75%
    22:00 +13°C° 0.5 mm 2 mps 694 mmHg 75%
    23:00 +13°C° 0.2 mm 2 mps 694 mmHg 76%

    24 October, Tuesday

    Time Temperature Precipitation Wind Pressure Humidity
    00:00 +12°C° 0.2 mm 2 mps 694 mmHg 77%
    01:00 +12°C° 0.2 mm 2 mps 693 mmHg 78%
    02:00 +12°C° 0.2 mm 1 mps 693 mmHg 79%
    03:00 +11°C° 0.2 mm 1 mps 693 mmHg 80%
    04:00 +11°C° 0.2 mm 1 mps 693 mmHg 81%
    05:00 +10°C° 0.1 mm 2 mps 693 mmHg 81%
    06:00 +10°C° 0.1 mm 2 mps 693 mmHg 80%
    07:00 +10°C° 0.1 mm 2 mps 693 mmHg 80%
    08:00 +12°C° 0.3 mm 2 mps 693 mmHg 75%
    09:00 +12°C° 0.3 mm 2 mps 694 mmHg 70%
    10:00 +13°C° 0.3 mm 2 mps 694 mmHg 64%
    11:00 +13°C° 0.4 mm 2 mps 694 mmHg 63%
    12:00 +14°C° 0.4 mm 2 mps 694 mmHg 61%
    13:00 +14°C° 0.4 mm 2 mps 693 mmHg 59%
    14:00 +14°C° 0.3 mm 2 mps 694 mmHg 61%
    15:00 +13°C° 0.3 mm 2 mps 694 mmHg 63%
    16:00 +12°C° 0.3 mm 3 mps 694 mmHg 65%
    17:00 +12°C° 0.2 mm 2 mps 694 mmHg 69%
    18:00 +10°C° 0.2 mm 2 mps 695 mmHg 73%
    19:00 +9°C° 0.2 mm 2 mps 695 mmHg 77%
    20:00 +9°C° 0.1 mm 2 mps 695 mmHg 79%
    21:00 +9°C° 0.1 mm 2 mps 695 mmHg 80%
    22:00 +9°C° 0.1 mm 2 mps 696 mmHg 82%
    23:00 +8°C° 0 mm 2 mps 696 mmHg 83%

    25 October, Wednesday

    Time Temperature Precipitation Wind Pressure Humidity
    00:00 +8°C° 0 mm 2 mps 696 mmHg 84%
    01:00 +8°C° 0 mm 2 mps 696 mmHg 85%
    02:00 +8°C° 0.1 mm 2 mps 697 mmHg 85%
    03:00 +8°C° 0.1 mm 2 mps 697 mmHg 85%
    04:00 +8°C° 0.1 mm 2 mps 697 mmHg 85%
    05:00 +8°C° 0 mm 2 mps 697 mmHg 84%
    06:00 +9°C° 0 mm 2 mps 698 mmHg 83%
    07:00 +9°C° 0 mm 2 mps 698 mmHg 82%
    08:00 +10°C° 0.1 mm 2 mps 699 mmHg 79%
    09:00 +10°C° 0.1 mm 2 mps 699 mmHg 76%
    10:00 +11°C° 0.1 mm 3 mps 699 mmHg 73%
    11:00 +11°C° 0.1 mm 3 mps 699 mmHg 71%
    12:00 +12°C° 0.1 mm 3 mps 699 mmHg 69%
    13:00 +12°C° 0.1 mm 3 mps 699 mmHg 66%
    14:00 +12°C° 0.4 mm 3 mps 700 mmHg 69%
    15:00 +11°C° 0.4 mm 3 mps 700 mmHg 71%
    16:00 +10°C° 0.4 mm 3 mps 700 mmHg 74%
    17:00 +10°C° 0.7 mm 3 mps 700 mmHg 77%
    18:00 +9°C° 0.7 mm 3 mps 701 mmHg 80%
    19:00 +8°C° 0.7 mm 3 mps 701 mmHg 83%
    20:00 +8°C° 1 mm 2 mps 701 mmHg 83%
    21:00 +7°C° 1 mm 2 mps 702 mmHg 83%
    22:00 +7°C° 1 mm 2 mps 702 mmHg 84%
    23:00 +7°C° 0.5 mm 2 mps 702 mmHg 84%

    26 October, Thursday

    Time Temperature Precipitation Wind Pressure Humidity
    00:00 +6°C° 0.5 mm 2 mps 702 mmHg 84%
    01:00 +6°C° 0.5 mm 2 mps 702 mmHg 84%
    02:00 +6°C° 0.4 mm 2 mps 702 mmHg 84%
    03:00 +6°C° 0.4 mm 2 mps 703 mmHg 84%
    04:00 +6°C° 0.4 mm 2 mps 703 mmHg 84%
    05:00 +6°C° 0.3 mm 2 mps 703 mmHg 83%
    06:00 +6°C° 0.3 mm 2 mps 704 mmHg 83%
    07:00 +5°C° 0.3 mm 3 mps 704 mmHg 82%
    08:00 +5°C° 0.2 mm 3 mps 705 mmHg 79%
    09:00 +7°C° 0.2 mm 3 mps 705 mmHg 75%
    10:00 +8°C° 0.2 mm 3 mps 706 mmHg 71%
    11:00 +8°C° 0 mm 3 mps 706 mmHg 69%
    12:00 +9°C° 0 mm 3 mps 706 mmHg 67%
    13:00 +10°C° 0 mm 3 mps 706 mmHg 64%
    14:00 +9°C° 0 mm 3 mps 706 mmHg 65%
    15:00 +9°C° 0 mm 3 mps 706 mmHg 66%
    16:00 +9°C° 0 mm 2 mps 707 mmHg 67%
    17:00 +8°C° 0 mm 2 mps 707 mmHg 70%
    18:00 +7°C° 0 mm 2 mps 707 mmHg 72%
    19:00 +7°C° 0 mm 2 mps 708 mmHg 75%
    20:00 +6°C° 0 mm 2 mps 708 mmHg 77%
    21:00 +6°C° 0 mm 2 mps 708 mmHg 78%
    22:00 +5°C° 0 mm 2 mps 708 mmHg 80%
    23:00 +5°C° 0 mm 2 mps 708 mmHg 81%
    Show more